Theta_e
349 347 335 327 327 327 339 343 348 350 348 349 352 350 349 347 351 349 345 353 354 350 347 357 355 353 349 351 353 353 352 351 349 349 349 349 348 345 347 349 348 350 352
351 350 347 336 328 327 329 341 346 348 348 346 348 352 349 344 344 344 345 347 353 354 351 350 356 355 349 346 347 351 353 353 353 351 350 351 354 353 348 350 351 351 351
355 354 352 348 340 332 329 330 346 339 345 344 342 340 344 343 341 342 341 341 348 350 350 351 350 349 352 354 355 359 359 359 359 358 358 357 350 350 350 351 353 355 352
357 357 355 353 350 341 336 332 333 344 336 337 338 338 340 341 341 340 340 340 342 349 354 352 352 353 352 352 352 352 352 350 349 349 350 354 353 353 350 353 351 349 345
355 356 356 355 353 353 350 345 339 338 339 334 334 336 338 340 340 340 340 343 341 342 349 350 351 351 354 354 355 355 355 357 360 360 360 357 351 345 343 344 343 343 341
354 355 355 357 356 354 354 354 352 344 343 341 338 336 337 339 339 343 345 341 339 341 340 341 346 352 353 351 348 345 342 344 343 343 341 339 336 336 336 338 343 350 354
355 355 356 355 356 357 356 355 355 352 347 346 343 337 335 338 339 344 348 346 344 341 340 338 336 333 336 340 340 341 340 338 338 337 336 332 333 336 343 343 351 355 355
357 357 356 356 355 357 357 356 356 356 354 349 345 339 336 337 337 339 344 348 347 344 341 338 336 332 331 340 342 338 331 330 329 332 336 337 341 341 346 350 352 355 358
356 358 358 356 355 356 358 356 355 357 357 353 342 337 337 338 339 339 341 344 346 344 339 337 337 333 328 329 332 332 330 331 331 334 335 337 343 349 351 353 356 359 358
357 357 359 359 356 356 355 354 354 356 355 352 344 339 341 342 342 342 342 344 344 343 340 336 333 330 329 330 333 333 332 328 330 331 334 337 342 347 352 356 360 360 360
362 358 359 360 359 357 358 358 356 356 357 354 353 350 348 345 345 344 342 343 343 342 340 337 331 327 328 332 340 343 342 345 346 347 346 344 348 360 361 358 360 360 360
354 360 359 360 361 360 360 360 359 358 358 360 358 357 355 351 347 345 344 343 343 343 341 339 338 339 342 344 344 346 350 352 354 355 354 353 353 355 359 357 361 358 359
353 359 360 361 361 362 361 361 361 360 360 359 360 358 357 362 356 350 344 344 342 341 338 338 338 342 346 348 349 352 355 356 357 358 357 356 356 359 358 360 360 359 358
359 359 359 361 362 362 361 362 361 361 361 363 361 361 361 357 358 359 353 351 347 342 340 336 335 337 338 338 341 347 352 356 358 358 358 357 361 360 360 360 361 361 357
363 360 362 362 362 362 361 363 362 362 362 361 360 358 360 360 355 352 356 355 357 358 357 354 349 345 344 344 345 349 352 355 357 360 360 361 361 360 360 360 362 360 356
360 361 361 361 361 360 361 360 364 361 362 361 358 361 359 356 357 357 357 357 359 360 363 363 359 355 351 351 352 355 358 361 362 362 361 361 362 362 361 360 356 359 358
354 357 358 360 361 361 360 360 362 362 361 359 361 358 357 358 357 358 359 359 360 362 362 363 363 360 358 359 360 363 363 359 350 352 357 360 359 359 359 355 355 356 358
342 353 355 357 359 361 359 361 361 360 360 360 358 357 356 356 358 359 359 360 361 361 361 362 363 363 362 362 362 362 359 359 362 362 360 356 356 356 354 354 356 355 357
334 331 348 352 350 357 361 362 360 362 360 359 358 358 357 358 358 358 358 359 359 360 360 361 359 358 358 361 360 357 357 357 362 362 361 358 357 356 356 353 357 357 357
325 334 331 345 348 355 352 358 357 359 361 361 359 358 356 355 352 351 350 348 349 352 354 355 359 363 363 362 361 359 361 363 362 360 359 359 356 355 351 353 357 359 355
322 325 330 329 334 343 346 348 347 344 345 344 352 352 349 349 349 345 348 349 347 347 348 348 346 351 357 358 358 358 360 359 358 357 356 355 352 352 351 352 357 356 354
324 325 324 328 330 332 332 335 342 344 346 343 341 338 339 347 351 352 349 345 354 357 358 358 357 355 358 357 356 358 357 356 357 357 353 353 351 352 352 352 354 353 351
320 324 327 328 329 330 330 333 335 335 336 336 339 343 345 339 336 336 338 338 341 348 354 353 356 357 357 357 357 357 355 355 357 356 354 354 351 351 353 354 352 349 348
318 322 325 327 329 330 333 333 333 332 333 334 336 339 342 344 345 344 344 342 345 346 351 355 355 354 354 353 355 356 358 356 355 354 354 354 352 350 349 348 348 347 346
315 317 319 320 323 328 328 330 331 332 333 334 335 336 338 339 339 341 342 342 342 338 329 339 350 350 350 351 351 351 351 352 351 350 351 349 347 346 346 346 345 344 342
310 311 313 316 318 321 322 325 326 328 329 329 331 330 330 331 333 334 334 335 337 334 331 334 342 342 343 344 344 346 349 348 349 347 347 346 344 344 344 344 343 341 340
Wind_Speed
44 41 45 45 44 41 34 33 30 28 28 23 16 16 17 17 19 19 18 17 18 12 12 10 13 10 15 13 7 10 13 12 16 17 16 18 20 21 20 20 25 25 25
45 43 43 46 46 44 43 37 37 32 31 31 28 20 19 18 18 19 17 21 16 17 12 18 17 14 11 12 15 16 15 13 17 23 22 19 17 19 23 22 24 25 26
42 43 42 44 46 45 44 45 38 38 36 32 30 28 27 22 20 20 19 17 23 22 20 20 17 16 17 18 14 16 15 15 15 19 22 20 22 16 22 24 21 19 21
40 42 43 44 45 46 43 43 47 39 39 37 33 31 29 26 23 22 22 21 20 23 21 19 18 18 18 18 18 18 19 20 19 20 21 19 21 20 19 17 24 29 28
42 43 43 45 45 42 42 42 42 43 43 39 35 33 32 29 28 27 25 25 22 22 23 24 22 22 23 22 21 21 19 19 19 20 21 19 23 25 27 30 34 35 34
42 45 41 41 42 44 43 42 41 41 40 40 38 35 35 33 31 27 26 26 27 25 24 25 26 24 23 22 22 23 23 26 28 30 32 33 33 32 32 35 31 27 27
40 41 42 42 44 45 44 43 43 44 42 43 41 38 38 37 33 28 27 28 26 26 27 26 25 24 22 23 22 22 23 24 25 27 30 30 31 28 28 29 24 23 30
38 39 41 43 44 45 45 45 45 44 44 43 43 41 39 38 35 33 31 31 31 30 28 28 27 26 24 25 27 29 30 30 30 29 31 32 32 32 27 24 25 29 27
42 40 40 43 44 44 45 44 44 43 42 45 42 41 40 39 37 34 33 35 36 35 33 32 33 33 31 29 30 32 32 34 33 34 34 33 29 26 24 24 25 25 23
39 41 38 39 43 45 46 44 42 42 44 43 43 41 41 40 38 36 35 34 37 38 37 36 35 34 33 33 34 35 37 36 34 33 31 29 26 25 23 23 19 19 18
33 38 39 40 42 44 42 41 41 41 41 42 41 41 42 41 40 38 37 38 39 38 38 37 36 34 32 29 25 25 27 24 24 26 28 28 24 18 21 23 16 19 19
24 36 40 41 41 40 40 40 40 40 40 38 39 38 39 39 38 38 38 38 38 40 40 39 36 30 26 24 24 26 25 24 25 28 29 28 25 20 26 20 19 22 22
29 36 38 38 40 40 39 41 40 40 40 42 38 40 38 33 37 37 36 36 36 38 38 37 37 36 30 28 28 29 28 29 29 30 31 30 24 24 22 20 23 22 21
30 34 35 37 38 39 39 39 42 40 41 38 37 34 32 34 33 31 31 27 27 34 35 34 35 36 36 36 37 36 35 34 32 31 30 26 22 23 19 25 23 20 20
17 26 29 31 35 37 38 35 39 40 39 40 37 32 30 28 26 28 31 30 24 21 23 29 34 36 37 38 37 36 36 35 33 29 26 23 24 23 21 26 24 25 25
12 16 22 26 29 35 34 37 35 35 36 34 30 27 25 30 29 27 26 31 28 22 19 19 23 27 27 27 27 26 24 24 27 26 26 25 25 24 23 26 28 30 26
12 20 23 24 27 31 33 37 33 37 34 35 34 29 30 26 31 30 25 30 25 21 23 23 21 18 18 19 19 24 28 28 24 23 26 25 24 28 28 26 27 25 24
4 15 20 24 27 23 33 33 33 36 38 36 36 35 35 35 32 28 28 25 26 25 25 25 25 21 18 21 26 28 28 23 20 18 18 20 22 21 22 23 23 23 23
3 2 11 15 10 18 27 32 33 26 30 30 27 34 36 37 34 32 31 29 31 31 28 24 22 21 24 27 31 25 16 14 19 20 22 27 23 22 23 24 23 24 25
10 7 4 6 8 13 7 17 24 25 25 18 22 18 28 24 23 23 24 26 29 30 28 28 21 18 20 21 22 21 17 15 19 24 27 29 28 25 23 26 25 28 27
2 8 3 8 10 9 8 14 13 9 6 4 17 12 13 8 13 9 8 7 6 8 6 18 22 24 20 16 23 21 26 29 27 28 28 26 23 23 20 25 25 25 25
8 7 6 4 9 9 6 7 11 9 8 8 2 15 20 16 16 16 6 5 9 7 2 8 10 9 14 17 21 23 26 27 28 24 23 26 22 21 20 24 20 20 22
2 4 7 6 7 7 4 9 7 8 5 8 13 7 15 11 9 9 16 13 16 17 11 10 11 15 16 15 19 21 21 24 23 23 26 25 21 19 19 21 20 22 23
2 5 10 6 7 9 11 5 5 6 5 5 16 8 7 7 12 21 17 17 24 22 16 15 15 18 19 21 24 22 22 21 19 21 18 22 25 18 17 19 22 24 26
4 3 4 5 6 6 6 9 14 12 13 16 11 8 11 10 7 7 9 11 11 10 14 18 20 22 24 26 25 26 30 29 25 24 25 21 21 18 22 21 23 23 26
14 12 8 5 3 5 2 2 3 4 5 5 5 5 7 7 8 10 11 12 14 17 18 19 22 24 26 27 29 30 30 31 29 28 26 27 24 23 27 28 29 26 28
Wind_Direction
220 221 220 217 218 216 210 208 211 201 205 209 211 226 235 222 219 224 221 222 238 248 233 224 246 257 230 217 230 255 273 279 276 290 289 277 273 288 305 316 320 336 344
218 223 223 222 222 221 215 213 215 213 215 215 219 224 234 230 225 227 228 211 230 238 237 225 223 242 256 244 242 240 242 248 265 279 296 306 314 322 314 320 322 320 321
210 213 217 219 223 224 221 217 217 220 221 223 227 226 233 236 232 231 236 229 215 234 240 239 242 240 239 252 255 263 263 270 282 286 298 297 303 323 318 315 318 327 325
212 211 213 216 217 224 225 222 218 222 228 229 232 236 235 236 237 235 236 239 230 224 238 245 242 246 250 256 262 262 266 270 273 279 287 304 310 318 315 304 300 302 306
208 213 216 217 217 217 218 225 225 226 230 234 235 235 236 237 238 237 234 237 241 235 230 240 243 242 245 251 257 264 271 277 279 283 285 286 284 291 296 299 301 302 309
212 211 218 216 217 216 218 217 225 227 227 231 234 234 236 238 240 237 241 239 239 245 243 238 240 242 252 256 255 260 265 265 269 273 278 283 290 295 298 302 307 316 321
212 213 212 215 217 221 220 218 218 227 229 229 234 236 237 240 240 237 237 245 245 245 248 253 254 255 255 259 267 272 274 275 277 283 284 288 294 300 306 308 309 309 309
216 216 213 213 217 219 222 222 220 219 225 232 234 237 238 240 241 239 235 240 248 252 253 255 258 261 258 255 263 271 280 284 287 288 289 296 298 301 304 305 304 303 312
218 219 219 215 214 218 220 223 223 220 222 229 235 236 238 241 243 244 240 237 242 248 253 255 257 264 271 272 271 271 273 273 277 279 283 288 292 294 295 294 289 297 304
224 219 218 221 214 218 225 227 225 222 224 229 233 237 240 243 245 247 247 244 245 249 254 259 262 264 266 268 269 272 275 279 283 286 286 284 282 285 281 279 292 287 296
229 223 217 218 220 219 221 224 222 222 223 227 232 237 241 245 247 249 248 247 248 253 258 264 268 270 272 274 275 277 280 290 287 285 283 283 286 287 280 292 284 283 284
242 225 218 217 219 215 217 220 224 221 224 224 231 232 240 247 250 250 251 250 251 252 255 260 266 273 276 281 278 277 282 283 279 278 280 282 281 272 273 286 275 281 281
239 227 217 216 215 214 219 221 221 224 223 227 226 236 232 236 249 254 257 256 254 253 255 255 253 249 250 255 261 268 270 270 274 278 281 284 283 275 289 265 266 263 274
228 215 212 211 212 216 215 225 223 222 224 221 225 225 235 239 234 250 255 256 257 251 251 253 253 254 253 254 257 262 266 270 275 281 285 285 278 284 281 273 270 271 271
208 205 206 209 212 215 217 219 221 223 223 223 219 229 221 231 243 237 242 250 253 260 262 256 255 254 253 254 258 262 267 271 274 277 279 277 276 276 270 263 269 273 284
202 206 215 217 220 220 220 217 222 225 219 225 231 210 224 225 231 237 236 242 249 248 245 253 259 259 262 265 265 267 266 260 263 266 270 273 274 271 263 267 275 276 280
211 217 219 219 220 223 219 217 221 216 215 218 221 217 219 225 227 236 238 230 233 235 246 252 257 260 256 261 262 248 249 266 274 270 260 264 268 269 265 274 272 271 262
191 214 222 221 223 224 216 215 216 217 216 215 215 216 219 226 231 227 235 235 229 231 241 248 246 244 247 252 247 253 272 281 284 274 260 276 276 270 275 277 273 268 259
313 139 182 208 207 219 211 209 209 207 216 224 223 224 225 227 228 238 242 244 244 242 243 248 256 262 254 249 264 275 271 263 260 266 265 276 276 278 279 278 272 266 253
306 292 61 159 136 161 153 165 197 202 183 186 200 207 219 216 219 226 232 237 241 246 251 247 238 268 277 271 271 276 267 247 251 255 261 271 281 278 279 278 275 262 243
112 12 252 79 104 114 102 135 132 164 164 192 190 204 223 239 231 245 272 251 233 235 301 283 257 240 238 260 264 266 249 255 272 273 274 270 269 269 275 277 273 257 248
26 349 329 215 122 117 130 118 130 123 133 139 273 269 233 206 193 203 210 288 317 300 360 282 317 272 251 263 263 267 268 273 275 275 276 274 277 275 264 265 263 252 235
345 150 113 73 219 184 153 141 114 84 88 38 343 279 215 249 253 253 255 224 245 242 216 224 243 235 239 244 252 255 258 261 262 273 273 271 277 275 266 260 254 243 245
182 170 174 164 168 178 184 152 193 201 164 188 227 215 165 173 171 179 190 191 220 228 234 244 250 249 252 245 246 247 242 238 243 259 253 265 276 271 267 265 258 253 253
92 135 164 155 163 166 162 178 208 237 231 227 242 211 211 219 222 187 196 216 240 252 265 260 260 259 255 248 248 253 256 255 262 263 253 253 260 255 248 248 245 252 255
69 71 73 76 97 169 207 265 252 207 235 263 266 285 267 268 274 281 282 287 286 288 284 268 264 263 263 262 262 260 255 252 251 248 247 244 241 241 249 248 249 252 251